Regional Weather Roundup
Issued by NWS Wakefield, VA

Home | Current Version | Previous Version | Graphics & Text | Print | Product List | Glossary On
Versions: 1 2 3 4 5 6 7 8 9 10 11 12 13 14 15 16 17 18 19 20 21 22 23 24 25 26 27 28 29 30 31 32 33 34 35 36 37 38 39 40 41 42 43 44 45 46 47 48 49 50
000
ASUS41 KAKQ 201410
RWRAKQ

REGIONAL WEATHER ROUNDUP
NATIONAL WEATHER SERVICE WAKEFIELD VA
1000 AM EDT WED AUG 20 2014

Note: "fair" indicates few or no clouds below 12,000 feet with no
significant weather and/or obstructions to visibility. * = Denotes
station may not report precipitation (e.g., rain,snow,etc.),
thunder or fog.

VAZ042-051-052>054-056-201500-
NORTHERN VIRGINIA

CITY           SKY/WX    TMP DP  RH WIND       PRES   REMARKS
WASH NATIONAL  PTSUNNY   79  66  64 S7        30.00R
DULLES         PTSUNNY   75  68  78 S7        30.00R
FORT BELVOIR   CLOUDY    75  67  76 SE3       30.00R
QUANTICO       PTSUNNY   76  69  79 S7        30.00R
FREDERICKSBRG* MOSUNNY   78  70  77 SE3       29.99R
STAFFORD*      PTSUNNY   76  75  95 SE3       30.04R
WARRENTON      CLOUDY    76  74  92 SW3       30.00R
CULPEPER*      MOSUNNY  N/A N/A N/A S3        30.01R
MANASSAS*      NOT AVBL
LEESBURG*      CLOUDY    77  72  83 SE5       30.00R
WINCHESTER     PTSUNNY   77  70  78 S8        29.99R
$$

VAZ048-049-060>072-079>083-201500-
CENTRAL AND SOUTH CENTRAL VIRGINIA...AND NORTH CENTRAL NORTH CAROLINA

CITY           SKY/WX    TMP DP  RH WIND       PRES   REMARKS
RICHMOND       PTSUNNY   77  69  76 VRB3      29.99R
CHESTERFIELD*  PTSUNNY  N/A N/A N/A SE6       30.01R
HANOVER        MOSUNNY   75  70  84 CALM      30.01R
TAPPAHANNOCK*  MOSUNNY   78  67  67 SE5       30.00R
CHARLOTTSVILLE CLOUDY    75  70  84 SW5       30.00R HAZE
ORANGE*        PTSUNNY   77  70  78 S6        30.01R
LOUISA*        PTSUNNY   77  70  78 S3        30.00R
FARMVILLE*     CLOUDY    73  73 100 CALM      29.99R
SOUTH HILL*    CLOUDY    73  73 100 CALM      30.06R
ROANOKE RAPIDS CLOUDY    73  72  94 CALM      30.00R
RALEIGH        PTSUNNY   79  71  76 CALM      30.00R
$$

VAZ088>098-201500-
SOUTHEAST VIRGINIA

CITY           SKY/WX    TMP DP  RH WIND       PRES   REMARKS
NORFOLK        MOSUNNY   78  70  76 NE7       29.98R
VIRGINIA BEACH PTSUNNY   79  69  71 NE9       29.97R
NORFOLK NAVAL  MOSUNNY   79  69  71 NE7       29.99R
WEST POINT*    MOSUNNY   81  68  65 E5        29.99S
NEWPORT NEWS   SUNNY     82  69  64 E7        29.98R
LANGLEY AFB    SUNNY     78  72  79 E8        29.97S
FORT EUSTIS    MOSUNNY   79  66  63 VRB3      29.97R
WILLIAMSBURG*  MOSUNNY   79  72  78 CALM      29.99R
FRANKLIN*      MOSUNNY   79  70  73 CALM      29.98R
WAKEFIELD      MOSUNNY   80  70  71 E3        29.98S
$$

VAZ020-022-025-037-045-201500-
WESTERN AND SOUTHWEST VIRGINIA

CITY           SKY/WX    TMP DP  RH WIND       PRES   REMARKS
STAUNTON*      PTSUNNY   75  67  76 SW7       30.03S
HOT SPRINGS VA NOT AVBL
LYNCHBURG      CLOUDY    72  72 100 CALM      30.04R FOG
DANVILLE       CLOUDY    76  70  82 CALM      30.02R
MARTINSVILLE   MOSUNNY   78  70  76 CALM      30.06R
ROANOKE        PTSUNNY   73  68  84 W6        30.05R
BLACKSBURG     CLOUDY    70  70 100 S7        30.09F FOG
DUBLIN*        CLOUDY    69  69 100 SW7       30.10R FOG
MARION*        CLOUDY    65  62  91 CALM      30.12F
HILLSVILLE*    PTSUNNY   68  66  94 W7        30.14R
RICHLANDS*     PTSUNNY   67  65  93 S6        30.09F
WISE*          PTSUNNY   64  64 100 SW5       30.10R THUNDER
ABINGDON*      LGT RAIN  72  71  99 S5        30.08F
$$

MDZ021>025-VAZ099-100-201500-
SOUTHERN MARYLAND AND THE DELMARVA PENINSULA

CITY           SKY/WX    TMP DP  RH WIND       PRES   REMARKS
PATUXENT RIVER MOSUNNY   76  67  73 SE6       29.99R
BAY BRIDGE APT   N/A     73  64  73 SE5       30.00R
LEONARDTOWN    CLOUDY    73  63  68 E3        30.01R
DOVER          MOSUNNY   77  68  72 VRB5      29.99R
GEORGETOWN     MOSUNNY   77  64  64 E10G17    30.00R
EASTON         PTSUNNY   77  66  69 SE7       30.03R
CAMBRIDGE      SUNNY     77  64  65 E8        29.99R
SALISBURY      MOSUNNY   79  65  62 E6        29.99R
OCEAN CITY     SUNNY     77  67  71 E10       29.99R
WALLOPS ISLAND MOSUNNY   79  67  66 E10       29.99R
ACCOMACK*      SUNNY     77  64  65 E8        29.98S
$$

NCZ012>017-030>032-201500-
EASTERN NORTH CAROLINA

CITY           SKY/WX    TMP DP  RH WIND       PRES   REMARKS
ELIZABETH CITY CLOUDY    78  73  84 N7        29.98R
AHOSKIE*       CLOUDY    74  71  90 CALM      29.99R
EDENTON*       MOSUNNY   78  73  86 NE6       29.98R
CURRITUCK*     CLOUDY    80  69  70 N6        29.98R
KILL DEVIL HLS PTSUNNY   80  73  78 NE8       29.95R
MANTEO         PTSUNNY   81  72  74 NE12G17   29.96R
CAPE HATTERAS  CLOUDY    80  73  79 N5        29.95R
GOLDSBORO      PTSUNNY   78  77  98 N5        29.97R
WASHINGTON     CLOUDY    74  72  92 NE7       29.98S
GREENVILLE     CLOUDY    73  73 100 NE5       30.00R
NEW BERN       PTSUNNY   79  72  79 N6        29.99R
WILMINGTON     SUNNY     84  75  74 VRB5      29.97R
$$

VAZ048-201500-
ELSEWHERE

CITY           SKY/WX    TMP DP  RH WIND       PRES   REMARKS
HARRISBURG PA  CLOUDY    74  65  73 SE5       29.98R
BALTIMORE      PTSUNNY   76  65  68 SE5       29.99R
ANNAPOLIS      PTSUNNY   75  66  73 SE9       30.00R
ANDREWS AFB    SUNNY     76  66  72 SE6       30.00R
WILMINGTON DE  MOSUNNY   76  62  62 SE7       30.01R
PHILADELPHIA   PTSUNNY   76  63  64 CALM      30.01R
WILDWOOD NJ*   SUNNY     77  63  61 E8        30.01R
ATLANTIC CITY  SUNNY     77  66  68 E8        30.00R
HENDERSON NC   CLOUDY    73  70  88 CALM      30.02R
GREENSBORO     FOG       72  71  97 CALM      30.03R VSB 3/4
ROCKY MOUNT    CLOUDY    75  73  93 NE5       29.99R
FAYETTEVILLE   SUNNY     82  74  76 CALM      29.97R
CHARLOTTE      CLOUDY    80  70  71 N5        30.02R
$$

VAZ100-201500-
MARINE

STATION/POSITION TIME  TEMP    WIND        PRES    WAVE   SWELL
                       AIR SEA DIR/SP/G            HT/PER HT/PER
                 (UTC) (F)     (DEG/KT/KT) (MB)    (FT/S) (FT/S)
44066 TX TWR #4  1400   72 73   40/ 12/ 14 1015.3R   3/ 5   2/ 9
CAPE MAY NJ      1400   75 79   80/  7/ 10 1015.2R
LEWES DE         1400   74 75   90/  7/  9 1015.4R
15NM E FENWICK I 1400   74 75              1015.0R   3/ 6
OCEAN-CITY-INLET 1400   75 74   70/  8/ 11 1015.1R
WACHAPREAGUE VA  1400   76 77   60/  9/ 12 1015.1R
THOMAS POINT MD  1400   74 77  150/  5/  5 1016.5R
GOOSES REEF MD   1400   73     150/  8/ 10 1016.0R
COVE POINT MD    1400   73     160/  7/  8 1015.4S
SOLOMONS ISLAND  1400      79                N/A
BISHOPS HEAD MD  1400   75 76   90/  5/  8 1015.3R
PINEY POINT MD   1400          130/  6/  7   N/A
POTOMAC MD       1400   75     100/  6/  8 1014.9R
CAMBRIDGE MD     1400   73 78   80/  5/  6 1015.4R
LEWISETTA VA     1400   75 78   90/  7/  8 1015.2S
RAPPAHANNOCK LGT 1400           60/  7/  8 1015.4S
STINGRAY PT      1400   75      90/  8/ 10 1015.9R
YORK RVR RNG VA  1400   77      90/  6/  7 1014.6S
YORKTOWN VA      1400   76 79   70/  7/  9 1014.7S
JAMESTOWN VA     1400   75     110/  4/  8   N/A
DOMINION TERM VA 1400   77     100/  7/  9 1014.9F
KIPTOPEKE VA     1400      81   80/  6/  9   N/A
CHES BAY BRIDGE  1400   75 78   10/  6/  8 1014.6R
CAPE HENRY VA    1400   76      40/  8/  9 1013.8R
CHESAPEAKE LGHT  1300   76      50/ 12/ 12 1015.0R
WILLOUBY STN VA  1400   76      60/  7/  8 1013.9R
S CRANEY ISL VA  1400           10/  8/ 10 1014.8R
CAPE HENRY BUOY  1400      76                N/A     3/ 6
1ST LANDING BUOY 1400   77      60/  8/ 10 1014.7R
CAPE CHARLES BUO 1400      77                N/A     3/ 6   2/ 6
OFFSHORE WE BUOY 1400      76                N/A     3/ 5   2/ 5
64NM E OF VA BCH 1400   78 78   40/ 10/ 12 1013.9R   3/ 5   2/ 7
DUCK PIER NC     1400   77 78   40/ 12/ 13 1013.8R
44056 DUCK FRF   1400                        N/A     3/ 6
OREGON INLET NC  1400   78 81   20/ 11/ 14 1014.1R
HATTERAS NC      1400   79 81  330/  7/ 10 1014.5R
DIAMOND SHLS NC  1400   78     310/  8/ 10 1013.8R   2/ 7   2/ 7
CAPE LOOKOUT NC  1300   76     350/  7/  9 1013.9R
$$


USA.gov is the U.S. government's official web portal to all federal, state and local government web resources and services.